Regional Weather Roundup
Issued by NWS

Home | Current Version | Previous Version | Graphics & Text | Print | Product List | Glossary On
Versions: 1 2 3 4 5 6 7 8 9 10 11 12 13 14 15 16 17 18 19 20 21 22 23 24 25 26 27 28 29 30 31 32 33 34 35 36 37 38 39 40 41 42 43 44 45 46 47 48 49 50
571
ASUS44 KJAN 300503
RWRMS

MISSISSIPPI HOURLY WEATHER ROUNDUP
NATIONAL WEATHER SERVICE JACKSON MS
1200 AM CDT TUE SEP 30 2014

NOTE: "FAIR: INDICATES FEW OR NO CLOUDS BELOW 12,000 FEET WITH NO
SIGNIFICANT WEATHER AND/OR OBSTRUCTIONS TO VISIBILITY.

MSZ001>002-007>008-010>013-018>021-025>028-034>036-300600-
NORTHWEST MISSISSIPPI

CITY           SKY/WX    TMP DP  RH WIND       PRES   REMARKS
CLARKSDALE     FAIR      64  63  94 N6        29.94F
CLEVELAND      FAIR      66  61  84 N3        29.92F
GREENWOOD      CLEAR     65  63  93 CALM      29.92F
GREENVILLE     CLEAR     66  58  75 NE6       29.92S
GRENADA        FAIR      63  61  94 CALM      29.94S
OLIVE BRANCH   CLEAR     68  64  88 NE3       29.95S
OXFORD         FAIR      63  61  94 CALM      29.96S
TUNICA         CLEAR     63  61  94 CALM      29.95S
$$

MSZ003>006-009-014>017-022>024-029>033-037>039-300600-
NORTHEAST MISSISSIPPI

CITY           SKY/WX    TMP DP  RH WIND       PRES   REMARKS
COLUMBUS AFB   PTCLDY    65  62  90 NW3       29.92F
CORINTH          N/A     63  61  94 CALM      29.94S FOG
GOLDN TRIANGLE PTCLDY    68  61  77 CALM      29.92F
STARKVILLE     FAIR      63  63 100 CALM      29.93S
TUPELO         CLEAR     65  61  87 NE5       29.93F
$$

MSZ040-058-300600-
CENTRAL MISSISSIPPI

CITY           SKY/WX    TMP DP  RH WIND       PRES   REMARKS
JACKSON INTL   CLEAR     68  66  93 CALM      29.91F
JACKSON HAWKNS CLEAR     72  66  81 CALM      29.92F
MERIDIAN KEY   CLEAR     67  66  97 CALM      29.91F
MERIDIAN NAS   PTCLDY    70  67  90 CALM      29.92S
RAYMOND        FOG       68  64  88 CALM      29.92S VSB 1/4
VICKSBURG      CLEAR     68  65  90 NW3       29.91F
$$

MSZ059>079-300600-
SOUTH MISSISSIPPI

CITY           SKY/WX    TMP DP  RH WIND       PRES   REMARKS
BROOKHAVEN     FAIR      68  68 100 CALM      29.93F
COLUMBIA       MOCLDY    70  70 100 NE5       29.88F
HATTIESBURG    CLEAR     73  71  93 CALM      29.90F
MCCOMB         CLEAR     74  68  81 N5        29.90F
NATCHEZ        MOCLDY    73  70  88 CALM      29.91F
PINE BELT      PTCLDY   N/A N/A N/A CALM      29.91S
$$

MSZ080>082-300600-
COASTAL MISSISSIPPI

CITY           SKY/WX    TMP DP  RH WIND       PRES   REMARKS
BILOXI         CLEAR     74  74 100 NE3       29.87F
PASCAGOULA     CLEAR     72  70  93 CALM      29.87F
GULFPORT       CLEAR     76  71  85 NE5       29.87F
$$



USA.gov is the U.S. government's official web portal to all federal, state and local government web resources and services.